User: anonymous   Login
Location: *
(17.3280°S, 114.7300°W)
Time: 10:56:31
(UTC+00:00)
Language:

Cosmos 1371 Rocket - Orbit

View from above orbital plane
View from above orbital plane
View from above satellite
View from above satellite

Ground track
Ground track

The orbit data is extracted from the following two-line orbital elements,

1 13242U 82051B   20305.16950028  .00000054  00000-0  27550-4 0  9991
2 13242  74.0431 252.4984 0024349 153.6524 206.5873 14.35995366 10457
Epoch (UTC): 31 October 2020 04:04:04
Eccentricity: 0.0024349
inclination: 74.0431°
perigee height: 754 km
apogee height: 789 km
right ascension of ascending node: 252.4984°
argument of perigee: 153.6524°
revolutions per day: 14.35995366
mean anomaly at epoch: 206.5873°
orbit number at epoch: 1045

The dashed part of the orbit path shows where the satellite is in the earth's shadow,  

DLR